This demonstration page uses our WeatherBlox Daily Observations layout. Learn more.

Left ArrowRight Arrow

Hourly Observations for October 11, 2022

Temp ( °F °C ) Dew Point ( °F °C ) Humidity (%) Winds ( mph kmh ) Pressure ( in mb ) Visibility ( mi km ) Precip ( " mm )
12:56 am 00:56 Clear 59 15 52 11.1 77 77 SSW 13 20 29.83 1010 10 16 0.00 0.00
1:56 am 01:56 Clear 59 15 53 11.7 81 81 SSW 16 26 29.81 1009 10 16 0.00 0.00
2:56 am 02:56 Clear 58 14.4 53 11.7 84 84 SSW 13 20 29.80 1009 10 16 0.00 0.00
3:56 am 03:56 Clear 57 13.9 53 11.7 87 87 SSW 14 22 29.79 1009 10 16 0.00 0.00
4:56 am 04:56 Clear 56 13.3 53 11.7 90 90 SSW 14 22 29.77 1008 10 16 0.00 0.00
5:56 am 05:56 Clear 55 12.8 52 11.1 89 89 SSW 13 20 29.77 1008 10 16 0.00 0.00
6:56 am 06:56 Clear 54 12.2 52 11.1 93 93 S 12 19 29.77 1008 10 16 0.00 0.00
7:56 am 07:56 Sunny with Mist and Fog 54 12.2 52 11.1 93 93 S 13 20 29.76 1008 6 10 0.00 0.00
8:56 am 08:56 Sunny 56 13.3 54 12.2 93 93 SSW 15 24 29.76 1008 10 16 0.00 0.00
9:56 am 09:56 Sunny 60 15.6 55 12.8 83 83 SSW 21 33 29.75 1008 10 16 0.00 0.00
10:56 am 10:56 Sunny 65 18.3 55 12.8 70 70 SSW 16 26 29.75 1007 10 16 0.00 0.00
11:56 am 11:56 Sunny 69 20.6 54 12.2 59 59 SSW 20 31 29.71 1006 10 16 0.00 0.00
12:56 pm 12:56 Sunny 74 23.3 55 12.8 52 52 SSW 20 31 29.70 1006 10 16 0.00 0.00
1:56 pm 13:56 Sunny 78 25.6 54 12.2 43 43 SW 17 28 29.65 1004 10 16 0.00 0.00
2:56 pm 14:56 Sunny 81 27.2 52 11.1 37 37 S 17 28 29.62 1003 10 16 0.00 0.00
3:56 pm 15:56 Sunny 82 27.8 48 8.9 31 31 SSW 20 31 29.59 1002 10 16 0.00 0.00
4:56 pm 16:56 Sunny 83 28.3 47 8.3 28 28 SSW 18 30 29.57 1001 10 16 0.00 0.00
5:56 pm 17:56 Sunny 79 26.1 47 8.3 32 32 SSW 18 30 29.58 1002 10 16 0.00 0.00
6:36 pm 18:36 Mostly Cloudy 81 27 39 4 23 23 SSW 8 13 29.52 1000 10 16 0.00 0.00
6:56 pm 18:56 Partly Cloudy 80 26.7 46 7.8 30 30 SW 6 9 29.61 1003 10 16 0.00 0.00
7:21 pm 19:21 Mostly Cloudy with Nearby Thunderstorms 79 26 46 8 32 32 W 7 11 29.54 1000 10 16 0.00 0.00
7:56 pm 19:56 Cloudy with Nearby Thunderstorms 64 17.8 49 9.4 58 58 N 29 46 29.67 1005 10 16 0.18 4.57
8:56 pm 20:56 Mostly Clear 62 16.7 46 7.8 56 56 NNW 14 22 29.78 1008 10 16 0.01 0.13
9:56 pm 21:56 Clear 60 15.6 44 6.7 55 55 N 13 20 29.81 1009 10 16 0.00 0.00
10:56 pm 22:56 Clear 59 15 40 4.4 49 49 NNW 20 31 29.81 1010 10 16 0.00 0.00
11:56 pm 23:56 Cloudy 57 13.9 38 3.3 49 49 NW 16 26 29.84 1011 10 16 0.00 0.00

Powered by AerisWeather